カタログに戻る

OPS 4682 DEB

運用中PO
NORAD 38379·DEBRIS·🇺🇸 United States

打ち上げ Apr 3, 1965 から Vandenberg Space Force Base

Loading…

次のパス (今後24時間)

TLE

最新Source: Space-Track

元期: Sep 12, 2026, 01:40 UTC

1 38379U 65027CG  26255.06967319  .00000970  00000-0  31692-2 0  9990
2 38379  90.2448   5.9600 0025881  11.2734 348.8963 13.00556147643759

AllMySatでOPS 4682 DEBをリアルタイム追跡

Download on the App Store